Flag for Germany Weather for the Past 2 Weeks in Frankenthal (Pfalz), Rhineland-Palatinate, Germany

Now
39 °F

Partly sunny.


Feels Like: 35 °F
Forecast: 37 / 46 °F
Wind: 6 mph from Southeast

Location: Mannheim City

Current Time: Feb 13, 2016 at 10:32:58 AM

Latest Report: Feb 13, 2016 at 9:50 AM


Visibility: N/A

Pressure: 29.33 "Hg

Humidity: 87%

Dew point: 36 °F

Location of Frankenthal (Pfalz)Location

Historic Weather in Frankenthal (Pfalz) — Graph

°F

Frankenthal (Pfalz) Temperature Yesterday

Maximum temperature yesterday: 46 °F (at 2:50 PM)
Minimum temperature yesterday: 34 °F (at 5:50 AM)
Average temperature yesterday: 40 °F

High & Low Weather Summary for the Past Weeks

 TemperatureHumidityPressure
High57 °F (Feb 1, 2:50 AM)100% (Jan 31, 8:50 AM)30.45 "Hg (Jan 31, 8:50 AM)
Low34 °F (Feb 12, 5:50 AM)50% (Jan 29, 1:50 PM)29.09 "Hg (Feb 9, 4:20 PM)
Average46 °F78%29.89 "Hg
* Reported Jan 29 9:20 AM — Feb 13 9:20 AM, Frankenthal (Pfalz), Weather by CustomWeather, © 2016

Note: Actual official high and low records may vary slightly from our data, if they occured in-between our weather recording intervals... More about our weather records

Advertising

Frankenthal (Pfalz) Weather History for the Previous 24 Hours

 ConditionsComfort  
Time TempWeatherWind HumidityBarometerVisibility
9:20 AM
Sat, Feb 13
37 °FLow clouds.6 mph93%29.36 "HgN/A
8:50 AM37 °FMore clouds than sun.5 mph93%29.36 "HgN/A
8:20 AM36 °FBroken clouds.3 mph87%29.36 "HgN/A
7:50 AM36 °FOvercast.3 mph87%29.36 "HgN/A
7:20 AM36 °FMostly cloudy.3 mph87%29.36 "HgN/A
8:50 PM
Fri, Feb 12
39 °FPassing clouds.5 mph70%29.36 "HgN/A
8:20 PM39 °FClear.2 mph70%29.39 "Hg10 mi
7:50 PM39 °FClear.1 mph75%29.39 "Hg10 mi
7:20 PM41 °FClear.5 mph66%29.39 "Hg10 mi
6:50 PM43 °FPassing clouds.7 mph61%29.39 "HgN/A
6:20 PM43 °FClear.7 mph61%29.39 "Hg10 mi
5:50 PM43 °FClear.7 mph61%29.39 "Hg10 mi
5:20 PM43 °FPassing clouds.8 mph61%29.39 "HgN/A
4:50 PM45 °FSunny.8 mph61%29.42 "Hg10 mi
4:20 PM45 °FPassing clouds.8 mph61%29.42 "HgN/A
3:50 PM45 °FPassing clouds.7 mph57%29.42 "HgN/A
3:20 PM45 °FScattered clouds.9 mph57%29.45 "HgN/A
2:50 PM46 °FPartly sunny.9 mph53%29.45 "HgN/A
2:20 PM45 °FPassing clouds.9 mph61%29.47 "HgN/A
1:50 PM45 °FPassing clouds.9 mph61%29.50 "HgN/A
1:20 PM45 °FScattered clouds.6 mph61%29.50 "HgN/A
12:50 PM43 °FScattered clouds.6 mph66%29.53 "HgN/A
12:20 PM41 °FScattered clouds.5 mph70%29.56 "HgN/A
11:50 AM39 °FBroken clouds.5 mph81%29.56 "HgN/A
11:20 AM39 °FScattered clouds.6 mph81%29.59 "HgN/A
10:50 AM39 °FScattered clouds.6 mph81%29.59 "HgN/A
10:20 AM39 °FScattered clouds.5 mph81%29.62 "HgN/A
Weather by CustomWeather, © 2016

See weather overviewHow to use our weather pages